User: anonymous   Login
Location: Sundre
(51.7972°N, 114.6405°W)
Time: 07:03:49
(UTC-07:00)
Language:

AO-73 - Orbit

View from above orbital plane
View from above orbital plane
View from above satellite
View from above satellite

Ground track
Ground track

The orbit data is extracted from the following two-line orbital elements,

1 39444U 13066AE  20024.81595902  .00000225  00000-0  33899-4 0  9992
2 39444  97.5575  33.0592 0058642  26.4654 333.9534 14.82049855332530
Epoch (UTC): 24 January 2020 19:34:58
Eccentricity: 0.0058642
inclination: 97.5575°
perigee height: 582 km
apogee height: 664 km
right ascension of ascending node: 33.0592°
argument of perigee: 26.4654°
revolutions per day: 14.82049855
mean anomaly at epoch: 333.9534°
orbit number at epoch: 33253

The dashed part of the orbit path shows where the satellite is in the earth's shadow,  

DLR